When you browse on this site, cookies collect data to enhance your experience and personalize the content and advertising you see.
Visit our Privacy Policy to learn more. By continuing to use the site, you agree to this use of cookies and data.
  • In Hungary
  • List of Countries
  • For 7 days
  • Water Temperature
  • Satellite Maps
  • Weather Map
  • News
  • Weather Widgets
  • user-avatar
    Login

    Hourly Weather Perugia

    Today, 19 January, Saturday

    Time Temperature Precipitation Wind Pressure Humidity
    00:00 +4°C° 0 mm 1 mps 726 mmHg 84%
    01:00 +4°C° 0 mm 1 mps 726 mmHg 80%
    02:00 +4°C° 0 mm 1 mps 726 mmHg 79%
    03:00 +4°C° 0 mm 1 mps 726 mmHg 78%
    04:00 +5°C° 0 mm 1 mps 726 mmHg 77%
    05:00 +5°C° 0 mm 1 mps 726 mmHg 77%
    06:00 +5°C° 0 mm 1 mps 726 mmHg 77%
    07:00 +5°C° 0 mm 2 mps 726 mmHg 80%
    08:00 +6°C° 0.1 mm 2 mps 726 mmHg 77%
    09:00 +7°C° 0.1 mm 1 mps 726 mmHg 73%
    10:00 +8°C° 0.1 mm 1 mps 726 mmHg 69%
    11:00 +9°C° 0.1 mm 1 mps 726 mmHg 65%
    12:00 +9°C° 0.1 mm 1 mps 726 mmHg 62%
    13:00 +9°C° 0 mm 1 mps 726 mmHg 61%
    14:00 +9°C° 0.1 mm 1 mps 726 mmHg 64%
    15:00 +9°C° 0.1 mm 1 mps 726 mmHg 67%
    16:00 +9°C° 0.1 mm 1 mps 726 mmHg 70%
    17:00 +8°C° 0.2 mm 1 mps 726 mmHg 74%
    18:00 +7°C° 0.2 mm 1 mps 726 mmHg 78%
    19:00 +6°C° 0.2 mm 1 mps 726 mmHg 83%
    20:00 +6°C° 0.3 mm 1 mps 726 mmHg 84%
    21:00 +6°C° 0.3 mm 1 mps 726 mmHg 86%
    22:00 +5°C° 0.3 mm 1 mps 726 mmHg 87%
    23:00 +5°C° 0.2 mm 1 mps 726 mmHg 88%

    Tomorrow, 20 January, Sunday

    Time Temperature Precipitation Wind Pressure Humidity
    00:00 +5°C° 0.2 mm 1 mps 726 mmHg 88%
    01:00 +5°C° 0.2 mm 1 mps 726 mmHg 88%
    02:00 +5°C° 0 mm 1 mps 726 mmHg 89%
    03:00 +5°C° 0 mm 1 mps 726 mmHg 90%
    04:00 +4°C° 0 mm 1 mps 725 mmHg 90%
    05:00 +4°C° 0 mm 1 mps 725 mmHg 90%
    06:00 +4°C° 0 mm 1 mps 726 mmHg 90%
    07:00 +4°C° 0 mm 1 mps 726 mmHg 90%
    08:00 +5°C° 0 mm 1 mps 726 mmHg 86%
    09:00 +6°C° 0 mm 1 mps 726 mmHg 82%
    10:00 +7°C° 0 mm 1 mps 727 mmHg 77%
    11:00 +8°C° 0 mm 1 mps 727 mmHg 73%
    12:00 +9°C° 0 mm 1 mps 727 mmHg 68%
    13:00 +9°C° 0 mm 0 mps 727 mmHg 64%
    14:00 +9°C° 0 mm 1 mps 727 mmHg 65%
    15:00 +9°C° 0 mm 1 mps 726 mmHg 67%
    16:00 +9°C° 0 mm 1 mps 726 mmHg 69%
    17:00 +7°C° 0 mm 2 mps 726 mmHg 75%
    18:00 +6°C° 0 mm 2 mps 726 mmHg 80%
    19:00 +4°C° 0 mm 2 mps 726 mmHg 86%
    20:00 +4°C° 0 mm 2 mps 726 mmHg 88%
    21:00 +4°C° 0 mm 2 mps 726 mmHg 90%
    22:00 +3°C° 0 mm 2 mps 726 mmHg 92%
    23:00 +3°C° 0 mm 2 mps 726 mmHg 93%

    Day after tomorrow, 21 January, Monday

    Time Temperature Precipitation Wind Pressure Humidity
    00:00 +3°C° 0 mm 2 mps 727 mmHg 93%
    01:00 +3°C° 0 mm 2 mps 727 mmHg 94%
    02:00 +3°C° 0 mm 2 mps 726 mmHg 94%
    03:00 +3°C° 0 mm 2 mps 726 mmHg 94%
    04:00 +3°C° 0 mm 2 mps 726 mmHg 94%
    05:00 +3°C° 0 mm 2 mps 726 mmHg 94%
    06:00 +3°C° 0 mm 2 mps 726 mmHg 93%
    07:00 +3°C° 0 mm 2 mps 726 mmHg 93%
    08:00 +4°C° 0.2 mm 2 mps 727 mmHg 90%
    09:00 +4°C° 0.2 mm 3 mps 727 mmHg 87%
    10:00 +4°C° 0.2 mm 3 mps 728 mmHg 84%
    11:00 +5°C° 0.4 mm 3 mps 728 mmHg 82%
    12:00 +5°C° 0.4 mm 4 mps 727 mmHg 80%
    13:00 +5°C° 0.4 mm 4 mps 727 mmHg 78%
    14:00 +5°C° 0.1 mm 4 mps 727 mmHg 78%
    15:00 +5°C° 0.1 mm 4 mps 727 mmHg 79%
    16:00 +5°C° 0.1 mm 4 mps 727 mmHg 79%
    17:00 +4°C° 0 mm 4 mps 727 mmHg 82%
    18:00 +3°C° 0 mm 3 mps 727 mmHg 86%
    19:00 +3°C° 0 mm 3 mps 726 mmHg 89%
    20:00 +3°C° 0.1 mm 3 mps 726 mmHg 90%
    21:00 +2°C° 0.1 mm 3 mps 726 mmHg 90%
    22:00 +3°C° 0.1 mm 2 mps 726 mmHg 91%
    23:00 +3°C° 0.1 mm 2 mps 726 mmHg 91%

    22 January, Tuesday

    Time Temperature Precipitation Wind Pressure Humidity
    00:00 +3°C° 0.1 mm 2 mps 726 mmHg 91%
    01:00 +3°C° 0.1 mm 2 mps 726 mmHg 91%
    02:00 +3°C° 0 mm 2 mps 725 mmHg 91%
    03:00 +2°C° 0 mm 3 mps 724 mmHg 91%
    04:00 +1°C° 0 mm 3 mps 724 mmHg 91%
    05:00 +1°C° 0 mm 3 mps 723 mmHg 91%
    06:00 +1°C° 0 mm 3 mps 723 mmHg 91%
    07:00 +1°C° 0 mm 3 mps 723 mmHg 91%
    08:00 +2°C° 0 mm 3 mps 723 mmHg 88%
    09:00 +2°C° 0 mm 3 mps 722 mmHg 84%
    10:00 +3°C° 0 mm 3 mps 722 mmHg 81%
    11:00 +4°C° 0 mm 3 mps 722 mmHg 78%
    12:00 +4°C° 0 mm 3 mps 721 mmHg 75%
    13:00 +5°C° 0 mm 3 mps 721 mmHg 72%
    14:00 +5°C° 0 mm 3 mps 720 mmHg 73%
    15:00 +4°C° 0 mm 3 mps 719 mmHg 75%
    16:00 +4°C° 0 mm 3 mps 719 mmHg 76%
    17:00 +4°C° 0.1 mm 2 mps 718 mmHg 80%
    18:00 +3°C° 0.1 mm 2 mps 718 mmHg 83%
    19:00 +2°C° 0.1 mm 2 mps 717 mmHg 87%
    20:00 +2°C° 0.1 mm 2 mps 717 mmHg 88%
    21:00 +3°C° 0.1 mm 1 mps 717 mmHg 88%
    22:00 +3°C° 0.1 mm 1 mps 717 mmHg 89%
    23:00 +3°C° 0.1 mm 1 mps 716 mmHg 89%

    23 January, Wednesday

    Time Temperature Precipitation Wind Pressure Humidity
    00:00 +3°C° 0.1 mm 1 mps 716 mmHg 89%
    01:00 +2°C° 0.1 mm 1 mps 715 mmHg 90%
    02:00 +2°C° 0 mm 1 mps 715 mmHg 90%
    03:00 +1°C° 0 mm 0 mps 714 mmHg 91%
    04:00 +1°C° 0 mm 0 mps 714 mmHg 92%
    05:00 0°C° 0 mm 0 mps 714 mmHg 92%
    06:00 0°C° 0 mm 0 mps 714 mmHg 93%
    07:00 0°C° 0 mm 1 mps 714 mmHg 94%
    08:00 +2°C° 0 mm 1 mps 714 mmHg 90%
    09:00 +3°C° 0 mm 1 mps 714 mmHg 86%
    10:00 +4°C° 0 mm 1 mps 714 mmHg 82%
    11:00 +5°C° 0 mm 1 mps 714 mmHg 74%
    12:00 +5°C° 0 mm 2 mps 713 mmHg 66%
    13:00 +7°C° 0 mm 2 mps 713 mmHg 58%
    14:00 +5°C° 0 mm 3 mps 712 mmHg 63%
    15:00 +5°C° 0 mm 4 mps 712 mmHg 67%
    16:00 +3°C° 0 mm 6 mps 712 mmHg 72%
    17:00 +3°C° 0.2 mm 5 mps 712 mmHg 76%
    18:00 +2°C° 0.2 mm 5 mps 712 mmHg 80%
    19:00 +3°C° 0.2 mm 4 mps 712 mmHg 84%
    20:00 +3°C° 0.6 mm 3 mps 713 mmHg 85%
    21:00 +3°C° 0.6 mm 3 mps 713 mmHg 87%
    22:00 +4°C° 0.6 mm 2 mps 713 mmHg 89%
    23:00 +3°C° 0.2 mm 2 mps 713 mmHg 90%

    24 January, Thursday

    Time Temperature Precipitation Wind Pressure Humidity
    00:00 +3°C° 0.2 mm 2 mps 713 mmHg 91%
    01:00 +3°C° 0.2 mm 2 mps 713 mmHg 92%
    02:00 +3°C° 0.1 mm 2 mps 713 mmHg 93%
    03:00 +3°C° 0.1 mm 2 mps 712 mmHg 94%
    04:00 +3°C° 0.1 mm 2 mps 712 mmHg 95%
    05:00 +3°C° 0 mm 2 mps 712 mmHg 94%
    06:00 +3°C° 0 mm 2 mps 712 mmHg 94%
    07:00 +3°C° 0 mm 2 mps 712 mmHg 93%
    08:00 +3°C° 0 mm 3 mps 713 mmHg 89%
    09:00 +5°C° 0 mm 4 mps 713 mmHg 85%
    10:00 +6°C° 0 mm 5 mps 713 mmHg 81%
    11:00 +5°C° 0 mm 6 mps 713 mmHg 79%
    12:00 +6°C° 0 mm 7 mps 713 mmHg 78%
    13:00 +6°C° 0 mm 8 mps 713 mmHg 77%
    14:00 +5°C° 0 mm 7 mps 713 mmHg 76%
    15:00 +5°C° 0 mm 7 mps 713 mmHg 76%
    16:00 +4°C° 0 mm 7 mps 713 mmHg 76%
    17:00 +4°C° 0 mm 6 mps 713 mmHg 78%
    18:00 +3°C° 0 mm 6 mps 713 mmHg 80%
    19:00 +2°C° 0 mm 5 mps 713 mmHg 82%
    20:00 +2°C° 0 mm 5 mps 714 mmHg 83%
    21:00 +2°C° 0 mm 5 mps 714 mmHg 83%
    22:00 +3°C° 0 mm 4 mps 714 mmHg 84%
    23:00 +3°C° 0 mm 4 mps 715 mmHg 84%
    Show more